Regional Weather Roundup
Issued by NWS Upton, NY

Current Version | Previous Version | Graphics & Text | Print | Product List | Glossary Off
Versions: 1 2 3 4 5 6 7 8 9 10 11 12 13 14 15 16 17 18 19 20 21 22 23 24 25 26 27 28 29 30 31 32 33 34 35 36 37 38 39 40 41 42 43 44 45 46 47 48 49 50
000 ASUS41 KOKX 252004 RWROKX REGIONAL WEATHER ROUNDUP NATIONAL WEATHER SERVICE NEW YORK NY 400 PM EDT WED MAY 25 2016 NOTE: "FAIR" INDICATES FEW OR NO CLOUDS BELOW 12,000 FEET WITH NO SIGNIFICANT WEATHER AND/OR OBSTRUCTIONS TO VISIBILITY. NYZ071-072-176-178-NJZ106-104-252100- NEW YORK CITY METRO AREA CITY SKY/WX TMP DP RH WIND PRES REMARKS CENTRAL PARK SUNNY 86 43 22 VRB6 30.05F LAGUARDIA APRT PTSUNNY 90 45 21 W12 30.01F KENNEDY INTL MOSUNNY 86 43 22 SW14G22 30.04F NEWARK/LIBERTY MOSUNNY 90 39 16 SW15G24 30.03F BRNX BOT. GARD N/A 88 41 19 NW2 30.02F TETERBORO SUNNY 89 40 17 W13G21 30.00F $$ NYZ177-179-078>081-252100- LONG ISLAND NEW YORK CITY SKY/WX TMP DP RH WIND PRES REMARKS FARMINGDALE SUNNY 86 50 28 SW15 30.02F ISLIP MOSUNNY 84 51 31 SW15 30.02F SHIRLEY SUNNY 83 52 34 SW12 30.03F RIVERHEAD N/A 86 50 28 E3 30.01F WESTHAMPTON NOT AVBL EAST HAMPTON FAIR 83 54 35 SW10G16 30.01F MONTAUK POINT N/A 81 53 37 SW7G17 30.02F $$ NYZ052-065-067-252100- HUDSON VALLEY CITY SKY/WX TMP DP RH WIND PRES REMARKS WHITE PLAINS SUNNY 86 43 22 W7 30.02F NEWBURGH NOT AVBL MONTGOMERY SUNNY 88 46 23 VRB6 30.00F POUGHKEEPSIE SUNNY 90 45 21 SW10 29.98F ALBANY LGT RAIN 83 49 30 NW22G33 29.99R $$ NJZ001-105-106-008-010-013-015-019>022-104-252100- NEW JERSEY CITY SKY/WX TMP DP RH WIND PRES REMARKS NEWARK/LIBERTY MOSUNNY 90 39 16 SW15G24 30.03F TETERBORO SUNNY 89 40 17 W13G21 30.00F CALDWELL SUNNY 88 42 20 W9G23 30.03F MORRISTOWN MOSUNNY 88 36 15 NW7G21 30.03F SOMERVILLE SUNNY 87 45 23 VRB6 30.03F SUSSEX SUNNY 88 40 18 VRB5 30.03F ANDOVER N/A 87 39 18 SW8 30.04F TRENTON SUNNY 86 44 23 W10 30.07S MILLVILLE MOSUNNY 85 51 31 SW12G18 30.09F ATLANTIC CITY MOSUNNY 88 44 21 W9 30.07F WRIGHTSTOWN NOT AVBL TOMS RIVER MOSUNNY 90 43 19 W14G22 30.06F BELMAR SUNNY 87 45 23 W13G18 30.07F $$ PAZ047>061-062-071-252100- EASTERN PENNSYLVANIA CITY SKY/WX TMP DP RH WIND PRES REMARKS PHILADELPHIA PTSUNNY 88 38 17 W14G22 30.09R ALLENTOWN SUNNY 87 46 24 SW9G25 30.06F SCRANTON SUNNY 85 46 25 SW10G17 30.06F $$ CTZ002-004>006-009-010-012-RIZ004-006-007-MAZ004-011-015-252100- SOUTHERN NEW ENGLAND IN CT CITY SKY/WX TMP DP RH WIND PRES REMARKS BRADLEY INTL MOSUNNY 87 44 22 W14G21 29.97S HARTFORD SUNNY 91 46 21 W14 29.97S DANBURY SUNNY 85 40 20 W14G20 30.03F WTRBRY/OXFORD SUNNY 84 46 26 W8 30.05F BRIDGEPORT SUNNY 81 51 35 SW14 30.01F MERIDEN SUNNY 88 46 23 VRB5 30.00S NEW HAVEN SUNNY 79 49 34 SW10G20 30.00F CHESTER FAIR 84 50 30 SW10 30.01S GROTON SUNNY 75 56 51 SW13 29.99F WILLIMANTIC SUNNY 89 42 19 W10G20 29.98S IN RI CITY SKY/WX TMP DP RH WIND PRES REMARKS PROVIDENCE MOSUNNY 89 44 20 W10 29.96F BLOCK ISLAND SUNNY 74 52 46 SW17 30.01F WESTERLY SUNNY 77 50 38 SW14G20 30.00F IN MA CITY SKY/WX TMP DP RH WIND PRES REMARKS BOSTON MOSUNNY 75 58 55 E7 29.93F WORCESTER SUNNY 83 42 23 W17G24 30.00S WESTFIELD SUNNY 87 43 21 NW13 29.98S PROVINCETOWN SUNNY 72 59 63 S12 29.97F NANTUCKET SUNNY 62 54 74 SW13 30.01F $$ ANZ330-335-338-340-345-350-353-355-252100- COASTAL MARINE OBSERVATIONS STATION/POSITION TIME SKY/WX TEMP WIND PRES VSBY WAVE AIR SEA DIR/SP/G HT/PER (UTC) (F) (DEG/KT/KT) (MB) (MI) (FT/S) NY HARB ENTRANCE 1850 68 65 210/ 6/ 8 1017.7 2/ 8 20S FIRE ISLAND 1850 61 57 220/ 10/ 10 1017.9 3/ 9 GREAT SOUTH BAY 1900 69 66 250/ 12/ 14 N/A 23 SSW MONTAUK P 1950 60 55 240/ 12/ 14 1016.5 3/ 8 15 E BARNEGAT LI 1922 58 N/A 3/10 HUDSON CANYON 1850 58 55 1018.9 3/ 6 KINGS POINT 1900 79 58 1016.9 EXECUTION ROCKS NOT AVBL CENTRAL LI SOUND 1900 67 240/ 10/ 12 N/A 1 EASTERN LI SOUND 1900 61 53 270/ 10/ 16 N/A ROBBINS REEF 1900 85 250/ 12/ 17 1016.6 $$ >>>>>>>>>>>>>>>>>>>>>>>>>>>> KEY <<<<<<<<<<<<<<<<<<<<<<<<<<< > < > SKY/WX - SKY CONDITION/PRESENT WEATHER < > TMP - TEMPERATURE IN FAHRENHEIT < > DP - DEWPOINT IN FAHRENHEIT < > RH - RELATIVE HUMIDITY IN PERCENT < > WIND - DIRECTION AND SPEED IN MPH < > PRES - MEAN SEA LEVEL PRESSURE IN INCHES OF HG < > WCI - WIND CHILL INDEX < > VSB - VISIBILITY IN MILES < > HX - HEAT INDEX < > TC - TEMPERATURE IN CELSIUS < > VRB - VARIABLE WIND DIRECTION < > < >>>>>>>>>>>>>>>>>>>>>>>>>>>> KEY <<<<<<<<<<<<<<<<<<<<<<<<<<<

USA.gov is the U.S. government's official web portal to all federal, state and local government web resources and services.